Location: Newark
(55.8429°N, 38.1995°E)
Time: 07:44:06
(UTC+00:00)

ISS - Visible Passes

Search period start: 23 October 2019 00:00
Search period end: 02 November 2019 00:00
Orbit: 411 x 421 km, 51.6° (Epoch: 23 October)

Date Brightness Start Highest point End Pass type
(mag) Time Alt. Az. Time Alt. Az. Time Alt. Az.
26 Oct -0.9 03:17:52 10° S 03:19:57 15° SSE 03:22:01 10° ESE visible
27 Oct -0.8 02:30:28 10° SSE 02:31:36 11° SE 02:32:45 10° ESE visible
28 Oct -1.7 03:16:21 10° SSW 03:19:08 24° SSE 03:21:56 10° ESE visible
29 Oct -1.4 02:28:32 12° SSW 02:30:43 19° SSE 02:33:12 10° ESE visible
30 Oct -1.2 01:42:10 15° SSE 01:42:18 15° SSE 01:44:17 10° ESE visible
30 Oct -2.4 03:15:18 10° SW 03:18:23 34° SSE 03:21:29 10° E visible
31 Oct -2.2 02:28:35 22° SSW 02:29:53 29° SSE 02:32:51 10° E visible
01 Nov -1.6 01:42:03 22° SE 01:42:03 22° SE 01:44:10 10° ESE visible
01 Nov -2.7 03:14:57 13° WSW 03:17:39 40° S 03:20:51 10° ESE visible
